Weather History for Douglas, WY

Change the Weather History Date:

Sunday, March 3, 2013

  Actual Average Record
Temperature  
Mean Temperature 43 °F 31 °F  
Max Temperature 57 °F 45 °F 65 °F (2009)
Min Temperature 28 °F 18 °F 0 °F (2014)
Degree Days  
Heating Degree Days 22 34  
Month to date heating degree days 80 103  
Since 1 July heating degree days 5111 5503  
Cooling Degree Days 0 0  
Month to date cooling degree days 0 0  
Year to date cooling degree days 0 0  
Moisture  
Dew Point 26 °F    
Average Humidity 54    
Maximum Humidity 75    
Minimum Humidity 33    
Precipitation  
Precipitation 0.00 in 0.01 in 0.01 in (2011)
Month to date precipitation 0.00 0.04  
Year to date precipitation 0.49 0.83  
Sea Level Pressure  
Sea Level Pressure 29.68 in    
Wind  
Wind Speed 20 mph (WNW)    
Max Wind Speed 36 mph    
Max Gust Speed 44 mph    
Visibility 10 miles    
Events      
T = Trace of Precipitation, MM = Missing Value Source: NWS Daily Summary

Daily Weather History Graph

Daily Weather History Graph

Search for Another Location

Airport:

Trip Planner

Search our weather history database for the weather conditions in past years. The results will help you decide how hot, cold, wet, or windy it might be!

Date:

Astronomy

Mar. 03, 2013 Rise Set
Actual Time 6:33 AM MST 5:53 PM MST
Civil Twilight 6:05 AM MST 6:22 PM MST
Nautical Twilight 5:32 AM MST 6:54 PM MST
Astronomical Twilight 4:59 AM MST 7:27 PM MST
Moon No Moon Rise 9:41 AM MST (3/3)
Length of Visible Light 12h 17m
Length of Day
11h 20m
Waning Gibbous, 63% of the Moon is Illuminated
Mar 3
Waning Gibbous
Mar 4
Last Quarter
Mar 11
New
Mar 19
First Quarter
Mar 27
Full

Hourly Weather History & Observations

Time (MST) Temp. Windchill Dew Point Humidity Pressure Visibility Wind Dir Wind Speed Gust Speed Precip Events Conditions
12:53 AM 36.0 °F 31.1 °F 26.1 °F 67% 29.88 in 10.0 mi SE 5.8 mph - N/A   Clear
1:53 AM 41.0 °F 33.1 °F 26.1 °F 55% 29.80 in 10.0 mi WSW 15.0 mph - N/A   Clear
2:53 AM 39.0 °F - 25.0 °F 57% 29.78 in 10.0 mi Calm Calm - N/A   Clear
4:53 AM 45.0 °F 41.2 °F 24.1 °F 44% 29.74 in 10.0 mi NW 6.9 mph - N/A   Clear
5:53 AM 46.0 °F 38.0 °F 24.1 °F 42% 29.74 in 10.0 mi West 21.9 mph 29.9 mph N/A   Overcast
6:53 AM 43.0 °F 35.4 °F 25.0 °F 49% 29.76 in 10.0 mi West 16.1 mph - N/A   Overcast
7:53 AM 45.0 °F 37.9 °F 26.1 °F 48% 29.76 in 10.0 mi West 16.1 mph - N/A   Overcast
8:53 AM 48.0 °F - 26.1 °F 42% 29.75 in 10.0 mi West 12.7 mph - N/A   Clear
9:53 AM 52.0 °F - 26.1 °F 37% 29.71 in 10.0 mi West 23.0 mph 33.4 mph N/A   Clear
10:53 AM 54.0 °F - 27.0 °F 35% 29.68 in 10.0 mi West 23.0 mph 32.2 mph N/A   Clear
11:53 AM 57.0 °F - 28.9 °F 34% 29.63 in 10.0 mi West 29.9 mph 36.8 mph N/A   Clear
12:53 PM 57.0 °F - 28.0 °F 33% 29.59 in 10.0 mi West 29.9 mph 38.0 mph N/A   Clear
1:53 PM 55.9 °F - 28.9 °F 36% 29.55 in 10.0 mi West 28.8 mph 41.4 mph N/A   Clear
2:53 PM 55.0 °F - 28.0 °F 35% 29.55 in 10.0 mi West 29.9 mph 38.0 mph N/A   Clear
3:53 PM 51.1 °F - 28.9 °F 43% 29.56 in 10.0 mi West 21.9 mph 35.7 mph N/A   Clear
4:53 PM 48.9 °F - 28.9 °F 46% 29.55 in 10.0 mi West 25.3 mph 38.0 mph N/A   Clear
5:53 PM 46.9 °F - 28.9 °F 50% 29.55 in 10.0 mi West 24.2 mph 34.5 mph N/A   Clear
6:53 PM 46.0 °F 38.0 °F 28.9 °F 51% 29.56 in 10.0 mi West 21.9 mph 31.1 mph N/A   Clear
7:53 PM 46.0 °F 37.0 °F 28.0 °F 50% 29.55 in 10.0 mi West 27.6 mph 36.8 mph N/A   Clear
8:53 PM 33.1 °F 18.9 °F 26.1 °F 75% 29.65 in 10.0 mi North 31.1 mph 41.4 mph N/A   Clear
9:00 PM 32.0 °F 17.2 °F 24.8 °F 75% 29.67 in 10.0 mi North 32.2 mph 41.4 mph N/A   Clear
9:53 PM 30.0 °F 16.3 °F 23.0 °F 75% 29.73 in 10.0 mi North 24.2 mph 32.2 mph N/A   Partly Cloudy
10:53 PM 28.9 °F 15.8 °F 19.0 °F 67% 29.77 in 10.0 mi North 20.7 mph 35.7 mph N/A   Overcast
11:53 PM 28.0 °F 16.5 °F 19.0 °F 69% 29.80 in 10.0 mi NNW 15.0 mph 27.6 mph N/A   Overcast